[[{"header":{"parameterUnit":"m.s-1","parameterCategory":1,"la1":30.2992,"la2":30.254,"lo1":-89.0895,"lo2":-89.0443,"dy":0.0025,"dx":0.0025,"nx":19,"ny":19,"refTime":"2026-05-14T21:00:00:Z","depth":0,"parameterNumber":2,"parameterNumberName":"U-component_of_WINDS"},"data":[0,0,0,-5.2331,-5.2333,-5.2409,-5.2409,-5.2558,-5.256,0,0,0,0,0,0,0,0,0,0,0,-5.234,-5.2342,-5.2331,-5.2333,-5.2409,-5.2409,-5.2558,-5.256,0,0,0,0,0,0,0,0,0,0,0,-5.2339,-5.2342,-5.2344,-5.2334,-5.2409,-5.2409,-5.2558,-5.2482,0,0,0,0,0,0,0,0,0,0,-5.2399,-5.2439,-5.2341,-5.2344,-5.2334,-5.2409,-5.2409,-5.2477,-5.2486,-5.2546,0,-5.2608,0,-5.2587,-5.2573,-5.2574,0,0,0,-5.231,-5.2432,-5.2423,-5.2345,-5.2335,-5.2409,-5.2368,-5.2482,-5.2492,-5.2559,-5.261,-5.2614,-5.2589,-5.2575,-5.2576,-5.2999,-5.3002,0,0,-5.2305,-5.2371,-5.2416,-5.2432,-5.2423,-5.2366,-5.2371,-5.2487,-5.2547,-5.261,-5.2617,-5.2592,-5.2576,-5.2578,-5.2996,-5.3,0,0,0,-5.2309,-5.237,-5.2356,-5.2427,-5.2437,-5.2369,-5.2374,-5.2542,-5.2532,-5.2618,-5.2594,-5.2577,-5.258,-5.2993,-5.2998,-5.3212,0,0,0,-5.2306,-5.2371,-5.2356,-5.2397,-5.2436,-5.249,-5.2428,-5.2524,-5.2535,-5.2593,-5.2577,-5.2582,-5.2989,-5.2995,-5.3199,-5.3303,0,0,0,-5.2324,-5.2373,-5.2395,-5.2401,-5.2435,-5.2487,-5.2483,-5.2525,-5.2522,-5.2574,-5.2582,-5.2987,-5.2994,-5.3187,-5.3283,-5.3432,0,0,0,-5.2363,-5.2587,-5.24,-5.264,-5.2435,-5.262,-5.2481,-5.2616,-5.2687,-5.2578,-5.299,-5.2997,-5.3183,-5.3271,-5.3419,-5.3567,-5.3635,0,0,-5.2681,-5.2627,-5.2763,-5.2598,-5.2832,-5.2603,-5.2869,-5.2872,-5.2817,-5.2942,-5.2951,-5.3203,-5.3282,-5.3429,-5.3999,-5.4054,0,0,0,-5.2886,-5.2984,-5.3032,-5.3102,-5.311,-5.3124,-5.3079,-5.308,-5.3182,-5.2895,-5.3296,-5.3341,-5.3425,-5.3492,-5.3539,-5.3605,-5.3032,-5.3031,-5.303,-5.343,-5.3347,-5.3566,-5.3492,-5.3562,-5.3513,-5.3561,-5.3554,-5.3452,-5.3548,-5.3584,-5.394,-5.4021,-5.4056,-5.4126,-5.3657,-5.3658,-5.3658,-5.3659,-5.3887,-5.4012,-5.3869,-5.4029,-5.3941,-5.4074,-5.4036,-5.3959,-5.407,-5.3906,-5.3976,-5.3802,-5.4118,-5.4175,-5.3674,-5.3672,-5.367,-5.3668,-5.3667,-5.4232,-5.4277,-5.4274,-5.4365,-5.4445,-5.4363,-5.4476,-5.4392,-5.4314,-5.4383,-5.441,-5.4406,-5.439,-5.4402,-5.4403,-5.4404,-5.4406,-5.4406,-5.4407,-5.459,-5.458,-5.4685,-5.4711,-5.4743,-5.4776,-5.4729,-5.4759,-5.4771,-5.47,-5.47,-5.4587,-5.4165,-5.406,-5.4426,-5.4423,-5.442,-5.4418,-5.4417,-5.508,-5.4956,-5.5118,-5.5151,-5.5173,-5.5257,-5.5149,-5.5217,-5.523,-5.5288,-5.516,-5.4863,-5.4801,-5.4764,-5.4675,-5.5179,-5.5179,-5.5179,-5.5179,-5.537,-5.533,-5.5476,-5.5534,-5.5581,-5.5499,-5.5685,-5.5651,-5.5596,-5.5598,-5.5514,-5.539,-5.5356,-5.5314,-5.5265,-5.5181,-5.5802,-5.5802,-5.5803,-5.5665,-5.5626,-5.58,-5.5743,-5.5755,-5.5766,-5.5937,-5.6009,-5.5922,-5.5826,-5.5598,-5.5572,-5.5371,-5.5311,-5.5209,-5.5134,-5.4978,0,0]},{"header":{"parameterUnit":"m.s-1","parameterCategory":1,"la1":30.2992,"la2":30.254,"lo1":-89.0895,"lo2":-89.0443,"dy":0.0025,"dx":0.0025,"nx":19,"ny":19,"refTime":"2026-05-14T21:00:00:Z","depth":0,"parameterNumber":3,"parameterNumberName":"V-component_of_WINDS"},"data":[0,0,0,0.8235,0.8234,0.8191,0.8191,0.8157,0.8157,0,0,0,0,0,0,0,0,0,0,0,0.8262,0.8262,0.8235,0.8234,0.8191,0.8191,0.8157,0.8157,0,0,0,0,0,0,0,0,0,0,0,0.8261,0.8262,0.8262,0.8234,0.8191,0.8191,0.8157,0.8182,0,0,0,0,0,0,0,0,0,0,0.822,0.8258,0.8262,0.8262,0.8234,0.8191,0.8191,0.8183,0.818,0.8186,0,0.8195,0,0.8176,0.8156,0.8156,0,0,0,0.8224,0.826,0.8236,0.8262,0.8234,0.8191,0.8208,0.8181,0.8178,0.8183,0.8195,0.8193,0.8175,0.8156,0.8156,0.8226,0.8227,0,0,0.8226,0.8261,0.8238,0.8235,0.8244,0.8209,0.8206,0.8179,0.8194,0.8194,0.8191,0.8175,0.8156,0.8156,0.8225,0.8227,0,0,0,0.824,0.8263,0.8239,0.8237,0.8228,0.8208,0.8205,0.8195,0.8184,0.8191,0.8174,0.8156,0.8156,0.8225,0.8226,0.8301,0,0,0,0.8241,0.8271,0.8241,0.8261,0.8229,0.8211,0.8222,0.8186,0.8182,0.8174,0.8156,0.8155,0.8224,0.8225,0.8296,0.833,0,0,0,0.826,0.8273,0.8271,0.8263,0.8246,0.821,0.8198,0.8184,0.8172,0.8156,0.8155,0.8223,0.8225,0.8293,0.8324,0.8359,0,0,0,0.8289,0.8337,0.8273,0.832,0.8247,0.8257,0.8198,0.8203,0.8198,0.8156,0.8224,0.8226,0.8292,0.832,0.8356,0.8396,0.8416,0,0,0.8369,0.8348,0.8373,0.8315,0.8346,0.8261,0.8303,0.8265,0.8231,0.823,0.8231,0.8298,0.8323,0.8359,0.8514,0.853,0,0,0,0.841,0.8429,0.8429,0.8427,0.84,0.838,0.8332,0.8318,0.8316,0.8238,0.8319,0.8333,0.8352,0.837,0.8383,0.8398,0.8235,0.8235,0.8235,0.8572,0.8528,0.8567,0.8518,0.8516,0.8468,0.8462,0.8435,0.839,0.841,0.8409,0.8509,0.8531,0.8541,0.8557,0.8426,0.8427,0.8427,0.8427,0.8685,0.8705,0.8646,0.8662,0.8616,0.8629,0.8584,0.8552,0.8558,0.8506,0.852,0.8468,0.856,0.8572,0.8432,0.8431,0.8431,0.843,0.843,0.8787,0.8789,0.8772,0.8765,0.8764,0.8713,0.8722,0.8678,0.8637,0.8652,0.8647,0.8645,0.8639,0.8652,0.8653,0.8653,0.8653,0.8654,0.8654,0.8899,0.8878,0.8891,0.8868,0.8861,0.8847,0.88,0.8792,0.8772,0.874,0.874,0.8693,0.8577,0.855,0.8659,0.8658,0.8658,0.8657,0.8657,0.9031,0.8994,0.9015,0.9009,0.8979,0.8982,0.8927,0.8915,0.8902,0.8908,0.8859,0.878,0.8755,0.8744,0.8721,0.8868,0.8868,0.8868,0.8868,0.9117,0.91,0.9112,0.9106,0.9094,0.9047,0.9072,0.9036,0.8993,0.8983,0.8955,0.892,0.8911,0.8892,0.8877,0.8855,0.9033,0.9033,0.9033,0.9196,0.9177,0.9207,0.9165,0.9139,0.9118,0.9141,0.9135,0.9079,0.9039,0.8974,0.8967,0.891,0.8894,0.8853,0.8831,0.8789,0,0]}]]